Weather History for Hereford, TX

Change the Weather History Date:

Thursday, August 9, 2012

  Actual Average (KAMA) Record (KAMA)
Temperature  
Mean Temperature 81 °F 78 °F  
Max Temperature 100 °F 90 °F 101 °F (1933)
Min Temperature 62 °F 65 °F 55 °F (1912)
Degree Days  
Heating Degree Days 0 0  
Month to date heating degree days 0  
Since 1 June heating degree days 7  
Since 1 July heating degree days 0  
Cooling Degree Days 16 13  
Month to date cooling degree days 117  
Year to date cooling degree days 942  
Since 1 June cooling degree days 817  
Growing Degree Days 31 (Base 50)    
Moisture  
Dew Point 46 °F    
Average Humidity 37    
Maximum Humidity 77    
Minimum Humidity 10    
Precipitation  
Precipitation 0.00 in 0.11 in 1.74 in (1927)
Month to date precipitation 0.97  
Year to date precipitation 13.33  
Snow  
Snow 0.00 in 0.00 in 0.00 in ()
Month to date snowfall 0.0  
Since 1 June snowfall 0.0  
Since 1 July snowfall 0.0  
Snow Depth -    
Sea Level Pressure  
Sea Level Pressure 30.15 in    
Wind  
Wind Speed 7 mph (NW)    
Max Wind Speed 15 mph    
Max Gust Speed 26 mph    
Visibility 10 miles    
Events      
T = Trace of Precipitation, MM = Missing Value Source: NWS Daily Summary

Daily Weather History Graph

Daily Weather History Graph

Search for Another Location

Airport:

Trip Planner

Search our weather history database for the weather conditions in past years. The results will help you decide how hot, cold, wet, or windy it might be!

Date:

Astronomy

Aug. 09, 2012 Rise Set
Actual Time 7:05 AM CDT 8:43 PM CDT
Civil Twilight 6:38 AM CDT 9:10 PM CDT
Nautical Twilight 6:05 AM CDT 9:43 PM CDT
Astronomical Twilight 5:31 AM CDT 10:17 PM CDT
Moon 12:20 AM CDT (8/9) 2:27 PM CDT (8/9)
Length of Visible Light 14h 32m
Length of Day
13h 38m
Waning Gibbous, 51% of the Moon is Illuminated
Aug 9
Waning Gibbous
Aug 9
Last Quarter
Aug 17
New
Aug 24
First Quarter
Aug 31
Full

Hourly Weather History & Observations

Time (CDT) Temp. Heat Index Dew Point Humidity Pressure Visibility Wind Dir Wind Speed Gust Speed Precip Events Conditions
12:15 AM 73.4 °F - 57.2 °F 57% 30.17 in 10.0 mi South 9.2 mph - N/A   Clear
12:35 AM 73.4 °F - 57.2 °F 57% 30.17 in 10.0 mi South 10.4 mph - N/A   Clear
12:55 AM 73.4 °F - 57.2 °F 57% 30.17 in 10.0 mi South 9.2 mph - N/A   Clear
1:15 AM 71.6 °F - 55.4 °F 57% 30.17 in 10.0 mi South 6.9 mph - N/A   Clear
1:35 AM 71.6 °F - 55.4 °F 57% 30.17 in 10.0 mi SSW 5.8 mph - N/A   Clear
1:55 AM 71.6 °F - 55.4 °F 57% 30.17 in 10.0 mi SSW 6.9 mph - N/A   Clear
2:15 AM 71.6 °F - 55.4 °F 57% 30.17 in 10.0 mi SW 5.8 mph - N/A   Clear
2:35 AM 69.8 °F - 55.4 °F 60% 30.17 in 10.0 mi WSW 3.5 mph - N/A   Clear
2:55 AM 69.8 °F - 55.4 °F 60% 30.17 in 10.0 mi West 3.5 mph - N/A   Clear
3:15 AM 68.0 °F - 53.6 °F 60% 30.17 in 10.0 mi Calm Calm - N/A   Clear
3:35 AM 66.2 °F - 55.4 °F 68% 30.17 in 10.0 mi West 4.6 mph - N/A   Clear
3:55 AM 66.2 °F - 55.4 °F 68% 30.17 in 10.0 mi WNW 4.6 mph - N/A   Clear
4:15 AM 64.4 °F - 55.4 °F 73% 30.16 in 10.0 mi West 6.9 mph - N/A   Clear
4:35 AM 64.4 °F - 55.4 °F 73% 30.16 in 10.0 mi WNW 5.8 mph - N/A   Clear
4:55 AM 62.6 °F - 55.4 °F 77% 30.16 in 10.0 mi West 4.6 mph - N/A   Clear
5:15 AM 62.6 °F - 55.4 °F 77% 30.16 in 10.0 mi West 4.6 mph - N/A   Clear
5:35 AM 62.6 °F - 55.4 °F 77% 30.16 in 10.0 mi WNW 3.5 mph - N/A   Clear
5:55 AM 62.6 °F - 55.4 °F 77% 30.16 in 10.0 mi West 5.8 mph - N/A   Clear
6:15 AM 62.6 °F - 55.4 °F 77% 30.17 in 10.0 mi West 5.8 mph - N/A   Clear
6:35 AM 62.6 °F - 55.4 °F 77% 30.17 in 10.0 mi West 5.8 mph - N/A   Clear
6:55 AM 64.4 °F - 55.4 °F 73% 30.18 in 10.0 mi WNW 5.8 mph - N/A   Clear
7:15 AM 64.4 °F - 55.4 °F 73% 30.19 in 10.0 mi WNW 4.6 mph - N/A   Clear
7:35 AM 62.6 °F - 55.4 °F 77% 30.19 in 10.0 mi NW 4.6 mph - N/A   Clear
7:55 AM 64.4 °F - 55.4 °F 73% 30.19 in 10.0 mi West 3.5 mph - N/A   Clear
8:15 AM 68.0 °F - 57.2 °F 68% 30.20 in 10.0 mi NW 4.6 mph - N/A   Clear
8:35 AM 71.6 °F - 57.2 °F 60% 30.20 in 10.0 mi NW 8.1 mph - N/A   Clear
8:55 AM 77.0 °F - 59.0 °F 54% 30.20 in 10.0 mi NW 6.9 mph - N/A   Clear
9:15 AM 78.8 °F - 59.0 °F 51% 30.21 in 10.0 mi WNW 9.2 mph - N/A   Clear
9:35 AM 82.4 °F 82.0 °F 57.2 °F 42% 30.21 in 10.0 mi WNW 9.2 mph - N/A   Clear
9:55 AM 86.0 °F 84.5 °F 55.4 °F 35% 30.20 in 10.0 mi NW 11.5 mph - N/A   Clear
10:15 AM 87.8 °F 85.7 °F 53.6 °F 31% 30.20 in 10.0 mi NW 12.7 mph - N/A   Clear
10:35 AM 89.6 °F - 51.8 °F 27% 30.20 in 10.0 mi NNW 11.5 mph - N/A   Clear
10:55 AM 89.6 °F - 50.0 °F 26% 30.20 in 10.0 mi NW 8.1 mph - N/A   Clear
11:15 AM 91.4 °F - 46.4 °F 21% 30.20 in 10.0 mi NNW 9.2 mph - N/A   Clear
11:35 AM 91.4 °F - 42.8 °F 18% 30.19 in 10.0 mi North 6.9 mph - N/A   Clear
11:55 AM 93.2 °F - 42.8 °F 17% 30.19 in 10.0 mi NW 9.2 mph - N/A   Clear
12:15 PM 95.0 °F - 37.4 °F 13% 30.18 in 10.0 mi WNW 6.9 mph - N/A   Clear
12:35 PM 95.0 °F - 37.4 °F 13% 30.18 in 10.0 mi West 4.6 mph 17.3 mph N/A   Clear
12:55 PM 95.0 °F - 37.4 °F 13% 30.17 in 10.0 mi WNW 8.1 mph - N/A   Clear
1:15 PM 95.0 °F - 37.4 °F 13% 30.17 in 10.0 mi WSW 3.5 mph - N/A   Clear
1:35 PM 95.0 °F - 37.4 °F 13% 30.17 in 10.0 mi NNW 8.1 mph - N/A   Clear
1:55 PM 96.8 °F - 37.4 °F 13% 30.16 in 10.0 mi ENE 4.6 mph - N/A   Clear
2:15 PM 98.6 °F - 37.4 °F 12% 30.16 in 10.0 mi North 6.9 mph - N/A   Clear
2:35 PM 96.8 °F - 37.4 °F 13% 30.15 in 10.0 mi Calm Calm - N/A   Clear
2:55 PM 98.6 °F - 37.4 °F 12% 30.14 in 10.0 mi NW 6.9 mph - N/A   Clear
3:15 PM 96.8 °F - 37.4 °F 13% 30.13 in 10.0 mi Calm Calm - N/A   Clear
3:35 PM 98.6 °F - 37.4 °F 12% 30.13 in 10.0 mi Calm Calm - N/A   Clear
3:55 PM 96.8 °F - 37.4 °F 13% 30.11 in 10.0 mi West 3.5 mph - N/A   Clear
4:15 PM 98.6 °F - 35.6 °F 11% 30.11 in 10.0 mi East 10.4 mph 16.1 mph N/A   Clear
4:35 PM 98.6 °F - 35.6 °F 11% 30.10 in 10.0 mi NE 5.8 mph - N/A   Clear
4:55 PM 100.4 °F - 35.6 °F 11% 30.09 in 10.0 mi NE 12.7 mph 17.3 mph N/A   Clear
5:15 PM 100.4 °F - 33.8 °F 10% 30.09 in 10.0 mi ENE 15.0 mph 26.5 mph N/A   Clear
5:35 PM 100.4 °F - 33.8 °F 10% 30.09 in 10.0 mi East 10.4 mph 17.3 mph N/A   Clear
6:15 PM 98.6 °F - 33.8 °F 10% 30.08 in 10.0 mi East 10.4 mph 18.4 mph N/A   Clear
6:35 PM 98.6 °F - 33.8 °F 10% 30.08 in 10.0 mi ENE 6.9 mph 16.1 mph N/A   Clear
6:55 PM 98.6 °F - 35.6 °F 11% 30.08 in 10.0 mi ENE 10.4 mph 17.3 mph N/A   Clear
7:15 PM 96.8 °F - 33.8 °F 11% 30.08 in 10.0 mi East 9.2 mph - N/A   Clear
7:35 PM 96.8 °F - 33.8 °F 11% 30.08 in 10.0 mi ENE 11.5 mph - N/A   Clear
7:55 PM 95.0 °F - 35.6 °F 12% 30.09 in 10.0 mi East 11.5 mph - N/A   Clear
8:15 PM 91.4 °F - 33.8 °F 13% 30.09 in 10.0 mi East 11.5 mph - N/A   Clear
8:35 PM 89.6 °F - 33.8 °F 14% 30.09 in 10.0 mi East 11.5 mph - N/A   Clear
8:55 PM 86.0 °F - 35.6 °F 17% 30.10 in 10.0 mi East 9.2 mph - N/A   Clear
9:15 PM 84.2 °F - 37.4 °F 19% 30.10 in 10.0 mi East 10.4 mph - N/A   Clear
9:35 PM 78.8 °F - 37.4 °F 23% 30.11 in 10.0 mi East 8.1 mph - N/A   Clear
9:55 PM 78.8 °F - 37.4 °F 23% 30.11 in 10.0 mi East 6.9 mph - N/A   Clear
10:15 PM 77.0 °F - 39.2 °F 26% 30.12 in 10.0 mi East 6.9 mph - N/A   Clear
10:35 PM 77.0 °F - 41.0 °F 28% 30.13 in 10.0 mi East 6.9 mph - N/A   Clear
10:55 PM 75.2 °F - 41.0 °F 29% 30.13 in 10.0 mi East 6.9 mph - N/A   Clear
11:15 PM 75.2 °F - 42.8 °F 31% 30.14 in 10.0 mi East 4.6 mph - N/A   Clear
11:55 PM 71.6 °F - 44.6 °F 38% 30.15 in 10.0 mi ENE 6.9 mph - N/A   Clear